GFSSE_500_temp_273.txt.gz
Temp
-8 -8 -8 -8 -8 -8 -8 -8 -8 -8 -8 -7 -7 -7 -7 -7 -7 -7 -7 -7 -7 -7 -7 -7 -7 -7 -7 -7 -7 -7 -7 -7 -6 -6 -6 -6 -5 -5 -6 -6 -6 -5 -5
-9 -9 -8 -8 -8 -8 -8 -8 -8 -8 -8 -8 -8 -8 -8 -7 -7 -7 -7 -7 -7 -7 -7 -7 -7 -7 -7 -7 -7 -7 -7 -7 -7 -6 -6 -6 -6 -5 -5 -6 -6 -6 -5
-9 -9 -9 -9 -9 -9 -9 -9 -9 -9 -9 -9 -9 -9 -9 -8 -8 -8 -7 -7 -7 -7 -7 -7 -7 -7 -7 -7 -7 -7 -7 -7 -7 -7 -6 -6 -6 -6 -5 -5 -6 -6 -6
-9 -9 -9 -9 -9 -10 -10 -9 -9 -9 -9 -9 -9 -9 -9 -9 -9 -9 -8 -8 -8 -8 -7 -7 -7 -7 -7 -7 -7 -7 -7 -7 -7 -7 -7 -7 -6 -6 -6 -6 -6 -6 -6
-10 -10 -10 -10 -10 -10 -10 -10 -10 -10 -10 -9 -9 -9 -9 -9 -9 -9 -9 -9 -8 -8 -8 -8 -7 -7 -7 -7 -7 -7 -7 -7 -7 -7 -7 -7 -7 -6 -6 -6 -6 -6 -6
-10 -10 -10 -10 -10 -10 -10 -10 -10 -10 -10 -10 -10 -10 -9 -9 -9 -9 -9 -8 -8 -8 -8 -8 -8 -8 -7 -7 -7 -7 -7 -7 -7 -7 -7 -7 -7 -7 -7 -7 -7 -6 -6
-11 -11 -11 -11 -10 -10 -10 -10 -10 -10 -10 -10 -10 -10 -10 -9 -9 -9 -8 -8 -8 -8 -8 -8 -8 -8 -8 -8 -7 -7 -7 -7 -7 -7 -7 -7 -7 -7 -7 -7 -7 -7 -7
-11 -11 -11 -11 -11 -11 -11 -11 -11 -11 -11 -11 -11 -11 -12 -12 -12 -11 -11 -11 -9 -8 -8 -8 -8 -8 -8 -8 -7 -7 -8 -7 -7 -7 -7 -7 -7 -7 -7 -7 -7 -7 -8
-11 -12 -11 -11 -11 -11 -11 -11 -12 -12 -13 -13 -14 -15 -15 -15 -15 -15 -15 -15 -14 -13 -11 -10 -8 -8 -8 -8 -8 -8 -8 -8 -8 -7 -7 -7 -8 -7 -7 -8 -8 -7 -8
-12 -12 -12 -12 -12 -13 -13 -13 -14 -14 -15 -15 -15 -15 -15 -15 -15 -15 -15 -15 -15 -15 -15 -14 -13 -12 -10 -8 -8 -8 -8 -8 -8 -8 -8 -8 -8 -8 -8 -7 -8 -8 -8
-12 -12 -13 -13 -13 -14 -15 -15 -15 -16 -16 -16 -16 -16 -16 -15 -15 -15 -15 -15 -15 -15 -15 -15 -15 -14 -14 -12 -11 -9 -8 -8 -8 -8 -8 -8 -9 -9 -8 -8 -8 -8 -8
-13 -13 -14 -14 -15 -15 -16 -16 -16 -16 -16 -16 -16 -16 -16 -16 -16 -16 -16 -16 -16 -15 -15 -15 -15 -15 -15 -14 -14 -12 -10 -8 -8 -8 -9 -9 -9 -9 -8 -8 -8 -8 -8
-14 -14 -15 -16 -16 -16 -17 -17 -17 -17 -17 -17 -17 -17 -17 -17 -17 -17 -17 -16 -17 -16 -16 -16 -16 -16 -16 -15 -15 -14 -13 -12 -9 -9 -9 -10 -10 -10 -9 -9 -9 -8 -8
-15 -16 -17 -17 -17 -17 -17 -17 -17 -17 -17 -17 -17 -17 -17 -17 -17 -17 -17 -17 -17 -18 -18 -17 -17 -16 -16 -16 -16 -15 -15 -14 -13 -11 -10 -10 -11 -10 -10 -10 -10 -9 -9
-17 -18 -17 -17 -17 -17 -17 -17 -17 -17 -17 -17 -16 -17 -17 -17 -17 -17 -18 -18 -19 -19 -19 -19 -19 -18 -18 -17 -16 -16 -16 -15 -15 -14 -13 -11 -11 -11 -12 -11 -11 -10 -10
-18 -18 -17 -17 -17 -17 -17 -17 -17 -17 -17 -17 -17 -17 -17 -18 -18 -19 -19 -19 -20 -20 -20 -20 -20 -19 -19 -19 -18 -18 -16 -16 -15 -15 -15 -14 -13 -13 -13 -13 -12 -11 -10
-18 -18 -17 -17 -17 -17 -17 -17 -17 -17 -17 -17 -17 -18 -18 -19 -19 -20 -20 -20 -20 -20 -21 -21 -21 -20 -20 -20 -20 -19 -18 -17 -17 -16 -16 -16 -14 -14 -13 -14 -13 -12 -11
-18 -18 -17 -17 -17 -17 -17 -17 -17 -17 -17 -17 -18 -19 -19 -19 -20 -20 -21 -21 -21 -21 -21 -22 -22 -21 -21 -21 -21 -20 -20 -19 -17 -17 -16 -16 -17 -16 -14 -14 -14 -13 -13
-18 -17 -17 -17 -17 -17 -17 -17 -17 -17 -18 -18 -19 -19 -19 -20 -20 -21 -21 -21 -22 -22 -23 -23 -24 -23 -23 -23 -22 -21 -20 -20 -19 -18 -17 -17 -17 -17 -16 -15 -15 -14 -13
-17 -17 -17 -17 -17 -17 -17 -17 -17 -18 -18 -19 -19 -19 -20 -20 -21 -22 -22 -22 -24 -24 -25 -25 -24 -24 -23 -23 -24 -24 -23 -21 -19 -18 -18 -17 -17 -18 -18 -17 -15 -15 -14
-17 -17 -17 -17 -17 -17 -18 -18 -18 -18 -19 -19 -19 -19 -20 -20 -22 -22 -22 -24 -25 -26 -25 -25 -25 -25 -25 -25 -24 -23 -23 -23 -21 -19 -19 -18 -18 -18 -18 -18 -17 -16 -15
-17 -17 -18 -17 -17 -18 -18 -18 -18 -18 -19 -19 -19 -20 -20 -21 -22 -22 -22 -24 -26 -25 -25 -26 -26 -26 -27 -26 -26 -25 -24 -23 -23 -22 -20 -19 -18 -18 -18 -18 -19 -18 -16
-17 -18 -18 -18 -18 -18 -18 -18 -18 -19 -19 -19 -20 -20 -20 -21 -22 -23 -23 -24 -25 -25 -25 -25 -26 -27 -27 -27 -26 -26 -25 -24 -24 -23 -22 -20 -19 -18 -18 -18 -18 -18 -18
-17 -18 -18 -18 -18 -18 -18 -18 -18 -19 -19 -19 -20 -20 -20 -21 -22 -22 -23 -24 -25 -25 -25 -25 -26 -27 -27 -27 -27 -26 -26 -25 -24 -24 -23 -22 -20 -19 -18 -18 -18 -18 -18
-18 -18 -18 -18 -18 -18 -18 -18 -19 -19 -19 -20 -20 -20 -21 -21 -22 -23 -23 -24 -25 -25 -25 -25 -26 -26 -27 -27 -28 -27 -26 -25 -25 -24 -23 -22 -21 -20 -19 -18 -18 -18 -18
-17 -18 -18 -18 -18 -18 -18 -18 -19 -19 -19 -20 -20 -21 -21 -21 -22 -23 -23 -24 -24 -25 -25 -25 -25 -26 -26 -27 -27 -27 -27 -26 -26 -25 -24 -23 -22 -20 -19 -19 -18 -18 -18

GFSSE_500_temp_276.txt.gz
Temp
-8 -8 -8 -8 -8 -8 -8 -8 -8 -8 -8 -8 -8 -8 -8 -8 -8 -7 -7 -7 -7 -7 -7 -7 -7 -7 -7 -7 -7 -7 -7 -6 -6 -6 -6 -6 -6 -6 -6 -6 -5 -6 -6
-9 -8 -8 -8 -8 -8 -9 -9 -9 -9 -9 -9 -9 -8 -8 -8 -8 -8 -8 -7 -7 -7 -7 -7 -7 -7 -7 -7 -7 -7 -7 -7 -6 -6 -6 -6 -6 -6 -6 -6 -5 -5 -5
-9 -9 -9 -9 -9 -9 -9 -10 -10 -9 -9 -10 -10 -9 -9 -9 -9 -9 -9 -8 -8 -7 -7 -7 -7 -7 -7 -7 -7 -7 -7 -7 -7 -7 -6 -6 -6 -6 -6 -6 -6 -6 -5
-9 -10 -10 -10 -10 -10 -10 -10 -10 -10 -10 -9 -9 -9 -9 -9 -9 -9 -9 -9 -9 -9 -8 -8 -7 -7 -7 -7 -7 -7 -7 -7 -7 -6 -6 -6 -6 -6 -6 -6 -6 -6 -6
-10 -10 -10 -10 -10 -10 -10 -10 -10 -10 -10 -10 -9 -9 -9 -9 -9 -9 -9 -9 -9 -9 -8 -8 -8 -8 -7 -7 -7 -7 -7 -7 -7 -7 -6 -7 -6 -6 -6 -6 -6 -6 -6
-11 -11 -11 -11 -11 -11 -11 -11 -11 -10 -10 -10 -10 -10 -9 -9 -9 -9 -9 -9 -9 -8 -8 -8 -8 -8 -8 -7 -7 -7 -7 -7 -7 -7 -7 -7 -7 -7 -6 -6 -6 -6 -6
-11 -11 -11 -11 -11 -11 -11 -11 -11 -11 -11 -10 -10 -10 -10 -10 -10 -9 -9 -8 -8 -8 -8 -8 -8 -8 -8 -8 -8 -8 -8 -7 -7 -7 -7 -7 -7 -7 -7 -6 -6 -6 -7
-11 -11 -12 -12 -12 -12 -12 -12 -12 -12 -12 -12 -12 -12 -12 -12 -12 -13 -12 -11 -10 -9 -8 -8 -8 -8 -8 -8 -8 -8 -8 -8 -8 -7 -7 -7 -7 -7 -7 -7 -7 -7 -7
-12 -12 -12 -12 -12 -12 -12 -12 -13 -13 -14 -14 -14 -14 -15 -15 -15 -15 -15 -14 -14 -13 -13 -11 -10 -9 -8 -8 -8 -8 -8 -8 -8 -8 -7 -7 -7 -8 -7 -7 -7 -7 -7
-12 -12 -12 -12 -13 -13 -13 -14 -14 -15 -15 -15 -16 -16 -16 -16 -16 -15 -15 -15 -15 -15 -15 -14 -13 -13 -12 -10 -9 -8 -8 -8 -8 -8 -8 -8 -8 -7 -8 -7 -7 -7 -7
-12 -13 -13 -14 -14 -14 -15 -16 -16 -16 -16 -16 -16 -16 -16 -16 -16 -15 -15 -15 -15 -15 -15 -15 -15 -15 -14 -14 -13 -11 -10 -8 -8 -8 -8 -9 -8 -8 -8 -7 -7 -7 -7
-13 -14 -14 -14 -16 -16 -17 -16 -17 -16 -16 -16 -16 -16 -16 -16 -16 -16 -16 -16 -16 -15 -15 -15 -15 -15 -15 -15 -14 -14 -13 -12 -10 -8 -8 -9 -9 -8 -8 -8 -8 -7 -7
-13 -14 -16 -17 -17 -17 -17 -17 -17 -17 -17 -17 -16 -16 -16 -16 -16 -16 -16 -16 -16 -16 -16 -16 -15 -15 -15 -15 -15 -15 -14 -14 -13 -11 -10 -9 -9 -9 -9 -9 -8 -8 -8
-15 -16 -17 -17 -17 -17 -17 -17 -17 -17 -17 -17 -17 -17 -17 -17 -17 -17 -17 -17 -17 -17 -17 -17 -17 -16 -16 -15 -15 -15 -15 -15 -14 -14 -13 -12 -11 -10 -9 -9 -9 -9 -9
-17 -17 -18 -17 -17 -17 -17 -17 -17 -17 -17 -17 -17 -17 -17 -17 -18 -18 -18 -19 -19 -19 -19 -19 -19 -18 -18 -17 -16 -16 -15 -15 -15 -15 -14 -14 -13 -12 -10 -10 -10 -9 -9
-17 -17 -18 -18 -17 -17 -17 -17 -17 -17 -17 -17 -17 -17 -17 -18 -18 -18 -18 -19 -19 -20 -19 -19 -19 -19 -19 -19 -18 -17 -16 -15 -15 -15 -15 -14 -14 -14 -13 -11 -11 -11 -10
-18 -18 -18 -17 -17 -17 -17 -17 -17 -17 -17 -17 -17 -17 -18 -18 -18 -18 -19 -19 -21 -21 -21 -21 -21 -21 -20 -20 -19 -19 -18 -17 -17 -16 -16 -15 -15 -15 -15 -14 -12 -12 -12
-17 -17 -17 -17 -17 -17 -17 -17 -17 -17 -17 -17 -18 -18 -18 -18 -19 -19 -19 -21 -22 -22 -22 -22 -22 -21 -20 -19 -19 -19 -19 -19 -18 -17 -17 -16 -16 -15 -15 -15 -14 -14 -14
-17 -17 -17 -17 -17 -17 -17 -17 -17 -18 -18 -18 -18 -18 -18 -19 -19 -19 -20 -21 -22 -22 -23 -24 -24 -24 -23 -22 -21 -21 -20 -20 -20 -19 -18 -18 -17 -16 -16 -16 -16 -15 -14
-17 -17 -17 -17 -17 -17 -17 -17 -17 -18 -18 -18 -18 -18 -18 -19 -19 -20 -20 -22 -22 -23 -24 -24 -24 -24 -25 -24 -24 -23 -22 -21 -21 -20 -20 -19 -18 -17 -17 -16 -16 -16 -15
-17 -17 -17 -17 -17 -17 -17 -18 -18 -18 -18 -18 -18 -18 -18 -19 -20 -20 -21 -22 -22 -23 -24 -24 -24 -24 -25 -26 -26 -25 -24 -23 -22 -22 -22 -21 -20 -19 -18 -18 -17 -17 -16
-17 -17 -18 -18 -17 -17 -18 -18 -18 -18 -18 -18 -18 -18 -19 -19 -20 -20 -21 -22 -22 -23 -24 -24 -24 -25 -25 -26 -27 -26 -26 -24 -23 -23 -23 -22 -21 -20 -19 -18 -18 -18 -17
-17 -18 -17 -17 -17 -17 -18 -18 -18 -18 -18 -18 -18 -18 -19 -19 -20 -21 -22 -22 -23 -23 -24 -25 -25 -25 -26 -26 -27 -27 -26 -26 -25 -24 -23 -23 -23 -21 -20 -19 -19 -18 -18
-17 -18 -18 -17 -17 -17 -18 -18 -18 -18 -18 -18 -18 -18 -18 -19 -20 -21 -22 -22 -23 -23 -24 -25 -25 -25 -25 -26 -27 -27 -27 -26 -26 -25 -24 -24 -24 -23 -22 -20 -20 -19 -19
-17 -18 -18 -17 -18 -18 -18 -18 -18 -18 -18 -18 -18 -18 -19 -20 -20 -21 -22 -23 -23 -24 -24 -25 -25 -25 -26 -26 -26 -27 -27 -27 -26 -26 -25 -25 -25 -24 -23 -22 -21 -20 -19
-17 -17 -18 -18 -18 -18 -18 -18 -18 -18 -19 -19 -18 -19 -19 -20 -20 -21 -21 -22 -23 -23 -23 -24 -25 -25 -26 -26 -26 -26 -27 -27 -27 -26 -25 -25 -25 -24 -23 -22 -21 -21 -20

GFSSE_500_temp_279.txt.gz
Temp
-8 -8 -8 -8 -8 -8 -8 -9 -9 -9 -9 -9 -9 -8 -8 -8 -8 -7 -7 -7 -7 -7 -7 -7 -7 -7 -7 -7 -7 -7 -7 -7 -7 -6 -6 -6 -6 -6 -5 -5 -5 -6 -6
-8 -8 -8 -9 -9 -9 -10 -10 -10 -10 -10 -9 -9 -9 -9 -9 -9 -9 -8 -8 -7 -7 -7 -7 -7 -7 -7 -7 -7 -7 -7 -7 -6 -6 -6 -6 -6 -6 -6 -6 -5 -5 -5
-9 -9 -9 -9 -10 -10 -10 -10 -10 -10 -10 -10 -10 -10 -9 -9 -10 -9 -9 -9 -8 -8 -7 -7 -7 -7 -7 -7 -7 -7 -7 -7 -6 -6 -6 -6 -6 -6 -6 -6 -6 -6 -5
-9 -9 -9 -10 -10 -10 -10 -10 -10 -10 -10 -10 -10 -10 -9 -9 -9 -9 -9 -9 -9 -9 -9 -8 -8 -7 -8 -7 -7 -7 -7 -7 -7 -6 -6 -6 -6 -6 -6 -6 -6 -6 -6
-10 -10 -10 -10 -10 -10 -11 -10 -10 -10 -10 -10 -10 -10 -10 -9 -9 -9 -9 -9 -9 -9 -9 -9 -9 -8 -8 -8 -8 -7 -7 -7 -7 -7 -6 -6 -6 -6 -6 -6 -6 -6 -6
-11 -11 -11 -11 -11 -11 -11 -11 -11 -11 -10 -10 -10 -10 -10 -10 -9 -9 -9 -9 -9 -9 -8 -8 -8 -8 -8 -8 -8 -8 -7 -7 -7 -6 -7 -7 -7 -7 -6 -6 -6 -7 -6
-11 -11 -11 -11 -11 -11 -11 -11 -11 -11 -11 -11 -11 -11 -11 -11 -11 -10 -10 -10 -9 -9 -9 -8 -8 -8 -8 -8 -8 -8 -8 -8 -7 -7 -7 -7 -7 -7 -7 -6 -6 -6 -7
-11 -11 -12 -12 -12 -12 -12 -12 -12 -12 -12 -12 -12 -13 -13 -13 -13 -12 -12 -12 -11 -10 -9 -9 -9 -8 -8 -8 -8 -8 -8 -8 -8 -8 -8 -7 -7 -7 -7 -7 -7 -6 -6
-11 -12 -12 -12 -12 -13 -13 -13 -13 -13 -14 -14 -14 -15 -15 -15 -15 -15 -15 -14 -14 -13 -12 -11 -11 -10 -9 -8 -8 -8 -8 -8 -8 -8 -8 -8 -7 -7 -7 -7 -7 -7 -6
-12 -12 -12 -13 -13 -13 -14 -15 -15 -16 -16 -16 -16 -16 -16 -16 -16 -16 -15 -15 -15 -15 -15 -14 -14 -13 -12 -11 -9 -9 -8 -8 -8 -8 -8 -8 -8 -8 -7 -7 -6 -6 -7
-12 -12 -13 -13 -14 -15 -16 -17 -17 -17 -17 -17 -16 -16 -16 -16 -15 -15 -15 -15 -15 -15 -15 -15 -15 -14 -14 -14 -13 -11 -10 -9 -9 -8 -8 -8 -8 -8 -8 -8 -7 -6 -6
-13 -13 -14 -15 -17 -17 -17 -17 -17 -17 -17 -17 -16 -16 -16 -16 -16 -16 -16 -15 -15 -15 -15 -15 -15 -14 -14 -14 -14 -14 -13 -12 -11 -10 -9 -9 -8 -8 -8 -8 -8 -7 -7
-14 -16 -16 -17 -17 -17 -17 -17 -17 -17 -17 -16 -16 -16 -16 -16 -16 -16 -16 -16 -16 -16 -16 -15 -15 -15 -15 -14 -14 -14 -14 -14 -13 -13 -12 -10 -9 -9 -8 -8 -8 -8 -7
-16 -16 -16 -17 -17 -17 -17 -17 -17 -17 -17 -17 -17 -17 -17 -16 -16 -16 -16 -17 -17 -18 -17 -17 -17 -17 -16 -15 -14 -14 -14 -14 -14 -14 -14 -13 -12 -10 -9 -8 -8 -8 -8
-16 -17 -17 -17 -17 -17 -17 -17 -17 -17 -17 -17 -17 -17 -17 -17 -17 -18 -18 -18 -18 -18 -18 -17 -17 -17 -17 -17 -16 -15 -14 -14 -14 -14 -14 -14 -14 -13 -12 -10 -9 -9 -8
-17 -17 -17 -17 -17 -17 -17 -17 -17 -17 -17 -17 -17 -17 -17 -17 -17 -17 -17 -18 -18 -18 -18 -18 -19 -20 -20 -19 -18 -17 -16 -15 -14 -14 -14 -14 -14 -14 -13 -13 -11 -10 -9
-17 -17 -17 -17 -17 -17 -17 -17 -17 -17 -17 -17 -17 -17 -17 -17 -17 -17 -18 -18 -18 -19 -19 -20 -20 -20 -20 -20 -19 -19 -19 -17 -16 -15 -14 -14 -14 -14 -14 -14 -13 -12 -11
-17 -17 -17 -17 -17 -17 -17 -17 -17 -17 -17 -18 -18 -17 -17 -17 -17 -17 -18 -18 -19 -20 -21 -21 -21 -22 -23 -23 -23 -23 -20 -19 -18 -17 -16 -14 -15 -15 -15 -15 -14 -14 -14
-17 -17 -17 -17 -17 -17 -17 -17 -17 -18 -18 -18 -17 -17 -17 -17 -17 -17 -18 -18 -19 -21 -22 -22 -22 -23 -23 -23 -24 -24 -24 -22 -20 -19 -19 -17 -16 -16 -15 -15 -15 -15 -15
-17 -17 -17 -17 -17 -17 -17 -17 -17 -18 -17 -17 -17 -17 -17 -17 -17 -17 -18 -18 -19 -21 -22 -22 -22 -23 -23 -23 -24 -25 -25 -24 -22 -20 -19 -19 -18 -17 -16 -16 -16 -16 -16
-17 -17 -17 -17 -17 -17 -17 -17 -18 -18 -17 -17 -17 -17 -17 -17 -18 -18 -18 -18 -19 -21 -22 -22 -22 -23 -23 -24 -24 -26 -26 -25 -24 -22 -21 -19 -19 -18 -18 -17 -17 -17 -17
-17 -17 -17 -17 -17 -17 -17 -17 -18 -18 -17 -17 -17 -17 -18 -18 -18 -18 -18 -18 -19 -21 -22 -22 -22 -23 -24 -24 -24 -26 -27 -26 -25 -24 -23 -21 -20 -19 -19 -19 -19 -18 -18
-17 -17 -17 -17 -17 -17 -17 -17 -17 -18 -17 -17 -18 -18 -18 -18 -18 -18 -19 -19 -19 -20 -22 -22 -22 -23 -24 -24 -24 -25 -26 -26 -26 -25 -24 -23 -22 -21 -21 -21 -20 -20 -19
-17 -17 -17 -17 -17 -17 -17 -17 -17 -18 -18 -18 -18 -18 -18 -19 -19 -19 -19 -19 -20 -20 -22 -22 -22 -23 -24 -25 -25 -25 -26 -26 -26 -26 -25 -24 -23 -23 -22 -22 -21 -21 -20
-16 -16 -17 -17 -17 -17 -17 -17 -17 -18 -18 -18 -18 -18 -19 -19 -19 -19 -19 -20 -20 -21 -21 -22 -23 -23 -24 -24 -25 -26 -25 -26 -26 -26 -26 -25 -24 -24 -24 -24 -22 -21 -21
-16 -16 -16 -16 -16 -17 -17 -17 -17 -18 -18 -18 -18 -19 -19 -19 -19 -19 -19 -20 -20 -21 -22 -22 -23 -24 -24 -24 -25 -25 -26 -25 -26 -26 -26 -26 -25 -25 -24 -24 -24 -23 -22

GFSSE_500_temp_285.txt.gz
Temp
-9 -9 -9 -9 -9 -9 -9 -9 -9 -8 -8 -9 -9 -8 -8 -7 -7 -7 -7 -7 -7 -7 -7 -6 -6 -7 -7 -7 -7 -7 -7 -6 -7 -7 -7 -7 -6 -6 -6 -6 -6 -6 -6
-9 -9 -9 -9 -9 -9 -9 -9 -9 -9 -9 -9 -9 -9 -9 -9 -9 -8 -8 -7 -7 -7 -7 -7 -7 -6 -6 -7 -7 -7 -7 -7 -6 -6 -7 -7 -7 -6 -6 -6 -6 -6 -6
-9 -9 -10 -10 -10 -10 -10 -10 -10 -10 -10 -10 -9 -10 -10 -10 -10 -9 -9 -9 -9 -8 -8 -8 -8 -7 -7 -7 -7 -7 -6 -7 -7 -6 -6 -6 -7 -7 -7 -6 -6 -6 -6
-10 -10 -10 -10 -10 -10 -10 -11 -10 -10 -10 -10 -10 -10 -9 -9 -10 -9 -9 -9 -9 -9 -9 -9 -9 -8 -8 -7 -7 -7 -7 -6 -6 -7 -6 -6 -6 -7 -7 -6 -6 -6 -6
-10 -10 -10 -10 -10 -11 -11 -11 -11 -11 -11 -10 -10 -10 -10 -10 -10 -10 -9 -10 -10 -9 -9 -9 -9 -9 -9 -8 -8 -8 -8 -7 -6 -7 -7 -6 -6 -6 -6 -7 -6 -6 -6
-11 -11 -11 -11 -10 -10 -10 -11 -11 -11 -11 -11 -11 -11 -10 -10 -10 -10 -10 -10 -9 -9 -9 -9 -9 -9 -9 -9 -9 -8 -8 -8 -7 -7 -7 -7 -6 -6 -6 -6 -6 -6 -6
-11 -11 -11 -11 -11 -11 -11 -11 -11 -11 -11 -11 -11 -11 -11 -10 -10 -10 -10 -10 -9 -9 -9 -9 -9 -9 -9 -9 -9 -9 -8 -8 -8 -8 -8 -8 -7 -6 -6 -6 -6 -6 -6
-11 -11 -11 -12 -12 -12 -12 -11 -11 -11 -11 -11 -11 -12 -12 -12 -12 -12 -11 -10 -10 -10 -10 -10 -9 -9 -9 -9 -9 -9 -9 -8 -8 -8 -8 -8 -8 -7 -7 -6 -6 -6 -6
-12 -12 -12 -12 -12 -12 -12 -13 -13 -13 -13 -13 -14 -14 -14 -15 -15 -15 -15 -14 -13 -13 -12 -12 -11 -11 -10 -9 -9 -9 -9 -8 -8 -8 -8 -8 -8 -8 -7 -7 -7 -6 -6
-12 -13 -13 -13 -14 -14 -15 -15 -15 -15 -15 -16 -16 -16 -16 -16 -16 -16 -16 -16 -15 -15 -15 -14 -14 -13 -13 -12 -11 -11 -9 -9 -8 -8 -8 -8 -8 -8 -8 -8 -7 -7 -6
-13 -13 -14 -15 -16 -16 -16 -16 -16 -16 -16 -17 -17 -16 -16 -16 -16 -16 -16 -16 -15 -15 -15 -15 -15 -15 -14 -14 -14 -13 -12 -11 -10 -9 -9 -8 -8 -8 -8 -8 -8 -7 -7
-14 -15 -16 -16 -16 -16 -17 -17 -16 -16 -16 -16 -16 -16 -16 -16 -16 -16 -16 -16 -16 -15 -15 -15 -14 -14 -14 -14 -14 -14 -14 -14 -13 -12 -11 -10 -9 -8 -8 -8 -8 -8 -7
-16 -16 -16 -16 -16 -16 -16 -16 -16 -16 -16 -16 -16 -16 -16 -16 -16 -16 -16 -16 -16 -16 -16 -15 -15 -15 -15 -15 -15 -14 -14 -14 -14 -14 -13 -12 -11 -10 -9 -8 -8 -7 -7
-15 -16 -16 -16 -16 -16 -16 -16 -16 -16 -16 -16 -17 -16 -16 -16 -16 -16 -16 -16 -16 -16 -16 -16 -16 -16 -15 -15 -15 -15 -14 -14 -13 -13 -13 -13 -13 -13 -11 -9 -8 -8 -8
-15 -16 -16 -16 -16 -16 -16 -16 -16 -16 -17 -16 -16 -16 -17 -17 -17 -16 -16 -16 -16 -16 -16 -16 -16 -16 -15 -15 -15 -15 -14 -14 -13 -13 -13 -13 -13 -13 -13 -12 -10 -9 -8
-16 -16 -16 -16 -16 -16 -16 -16 -17 -17 -17 -17 -16 -16 -17 -17 -16 -16 -16 -16 -16 -16 -16 -16 -16 -16 -15 -16 -16 -16 -16 -16 -16 -15 -14 -14 -13 -13 -13 -13 -12 -11 -9
-15 -15 -16 -16 -16 -16 -17 -17 -17 -17 -17 -16 -16 -16 -16 -16 -16 -16 -16 -16 -16 -16 -16 -16 -16 -16 -16 -16 -17 -17 -18 -19 -20 -20 -18 -17 -15 -15 -13 -13 -13 -13 -11
-15 -15 -16 -16 -16 -16 -16 -17 -16 -16 -16 -16 -16 -16 -17 -17 -17 -17 -17 -17 -17 -17 -17 -16 -16 -16 -16 -17 -17 -19 -20 -21 -21 -21 -21 -20 -19 -17 -15 -13 -13 -13 -13
-15 -15 -16 -16 -16 -16 -16 -16 -16 -16 -16 -16 -16 -17 -17 -17 -17 -17 -17 -17 -17 -17 -17 -17 -17 -17 -17 -18 -19 -20 -21 -21 -21 -22 -22 -22 -21 -19 -16 -15 -13 -13 -13
-15 -15 -15 -15 -16 -16 -16 -16 -17 -17 -17 -17 -17 -17 -17 -17 -17 -18 -18 -18 -18 -18 -18 -18 -18 -17 -17 -18 -20 -21 -21 -21 -21 -22 -22 -22 -23 -21 -19 -17 -15 -13 -13
-15 -15 -15 -15 -16 -16 -16 -16 -17 -17 -17 -17 -17 -17 -17 -17 -17 -18 -18 -18 -18 -18 -18 -18 -18 -18 -18 -19 -20 -21 -21 -21 -21 -22 -22 -23 -24 -23 -21 -19 -17 -15 -14
-14 -15 -15 -15 -15 -15 -15 -16 -16 -16 -16 -16 -16 -17 -17 -17 -17 -17 -17 -18 -17 -18 -18 -18 -18 -19 -19 -19 -20 -21 -22 -23 -23 -23 -23 -24 -24 -24 -23 -21 -20 -17 -16
-13 -13 -14 -14 -14 -15 -15 -15 -15 -16 -16 -16 -16 -16 -16 -16 -16 -17 -17 -17 -17 -17 -17 -18 -18 -19 -19 -20 -21 -21 -22 -22 -23 -24 -24 -25 -25 -25 -25 -24 -22 -20 -18
-12 -13 -14 -14 -14 -14 -15 -15 -15 -15 -15 -15 -15 -16 -16 -16 -16 -16 -17 -17 -17 -17 -18 -18 -18 -19 -20 -21 -21 -22 -23 -23 -22 -23 -25 -25 -26 -26 -26 -25 -24 -23 -22
-12 -12 -12 -13 -13 -13 -14 -14 -15 -15 -15 -15 -15 -16 -16 -16 -16 -16 -17 -17 -17 -18 -18 -18 -19 -20 -20 -21 -21 -22 -23 -23 -23 -24 -25 -26 -27 -27 -27 -26 -26 -25 -24
-11 -12 -12 -13 -13 -13 -13 -14 -14 -14 -15 -15 -15 -16 -16 -16 -16 -16 -17 -17 -18 -18 -18 -19 -19 -20 -21 -21 -22 -22 -23 -23 -23 -24 -25 -26 -27 -27 -27 -27 -27 -26 -25

GFSSE_500_temp_288.txt.gz
Temp
-9 -9 -9 -9 -9 -9 -9 -9 -9 -9 -9 -9 -9 -8 -8 -8 -7 -7 -7 -7 -7 -7 -7 -7 -7 -6 -7 -7 -7 -7 -7 -7 -7 -7 -6 -7 -6 -6 -6 -5 -5 -6 -6
-9 -9 -10 -9 -10 -10 -9 -9 -9 -9 -9 -10 -10 -10 -9 -9 -9 -8 -8 -8 -7 -7 -7 -7 -7 -7 -7 -6 -7 -7 -7 -7 -7 -7 -7 -7 -7 -6 -6 -6 -6 -6 -6
-9 -10 -10 -10 -10 -10 -10 -10 -10 -10 -10 -10 -10 -10 -10 -10 -10 -10 -9 -9 -9 -9 -8 -8 -8 -7 -7 -7 -7 -7 -7 -6 -7 -7 -7 -6 -7 -7 -7 -6 -6 -6 -6
-10 -10 -10 -10 -10 -10 -10 -10 -10 -10 -10 -10 -10 -10 -10 -10 -10 -10 -10 -10 -10 -9 -9 -9 -9 -9 -8 -8 -8 -7 -7 -7 -7 -7 -7 -7 -6 -6 -7 -6 -7 -6 -6
-11 -11 -11 -11 -11 -11 -11 -11 -11 -11 -11 -11 -11 -11 -11 -11 -10 -10 -10 -10 -10 -10 -10 -9 -9 -9 -9 -9 -8 -8 -8 -7 -7 -7 -7 -7 -7 -6 -6 -6 -7 -7 -6
-11 -11 -11 -11 -11 -11 -11 -11 -11 -11 -11 -11 -11 -11 -10 -10 -10 -10 -10 -10 -10 -9 -9 -9 -9 -9 -9 -9 -9 -8 -8 -8 -8 -8 -7 -7 -7 -7 -6 -6 -6 -6 -6
-11 -11 -11 -11 -11 -11 -11 -11 -11 -11 -11 -11 -11 -11 -11 -10 -10 -10 -10 -10 -9 -9 -9 -9 -9 -9 -9 -9 -9 -9 -9 -8 -8 -8 -8 -7 -7 -7 -7 -7 -6 -6 -6
-11 -11 -12 -12 -12 -12 -12 -12 -12 -12 -12 -12 -12 -12 -12 -11 -11 -11 -10 -10 -10 -10 -10 -9 -9 -9 -9 -9 -9 -9 -9 -9 -8 -8 -8 -8 -8 -7 -7 -7 -7 -6 -6
-12 -12 -13 -13 -13 -13 -14 -14 -14 -15 -15 -15 -15 -15 -15 -15 -15 -15 -14 -13 -13 -12 -12 -11 -11 -10 -9 -9 -9 -8 -8 -8 -8 -8 -8 -8 -8 -8 -8 -7 -7 -7 -6
-13 -13 -14 -15 -16 -15 -15 -15 -16 -16 -16 -15 -16 -16 -16 -16 -16 -16 -16 -15 -15 -15 -15 -15 -14 -14 -13 -12 -11 -10 -9 -9 -9 -8 -8 -8 -8 -8 -8 -8 -7 -7 -7
-14 -14 -15 -15 -15 -15 -15 -15 -16 -16 -16 -16 -16 -16 -16 -16 -16 -16 -16 -16 -15 -15 -15 -15 -15 -15 -15 -14 -14 -14 -12 -12 -11 -10 -9 -8 -8 -8 -8 -8 -8 -7 -7
-14 -15 -15 -15 -15 -15 -16 -16 -16 -16 -16 -16 -16 -16 -16 -16 -16 -16 -15 -15 -15 -15 -15 -14 -14 -14 -14 -14 -14 -14 -14 -14 -13 -13 -12 -11 -9 -8 -8 -8 -8 -8 -7
-15 -15 -15 -15 -15 -15 -15 -16 -16 -16 -16 -16 -16 -16 -16 -16 -16 -16 -16 -16 -16 -16 -16 -16 -16 -15 -15 -15 -14 -14 -14 -14 -14 -14 -13 -13 -13 -11 -9 -8 -8 -8 -8
-15 -15 -15 -15 -15 -15 -15 -15 -16 -16 -16 -16 -16 -16 -16 -16 -16 -16 -16 -16 -16 -16 -16 -16 -15 -15 -15 -15 -15 -15 -15 -14 -14 -14 -14 -14 -13 -13 -12 -11 -9 -9 -8
-14 -14 -15 -15 -15 -15 -15 -16 -16 -16 -16 -16 -16 -16 -16 -16 -16 -16 -16 -16 -16 -16 -16 -16 -16 -16 -16 -15 -15 -15 -15 -15 -15 -14 -14 -14 -14 -13 -13 -12 -12 -10 -9
-14 -14 -14 -15 -15 -15 -15 -15 -16 -16 -16 -16 -16 -16 -16 -16 -16 -16 -16 -16 -16 -16 -16 -16 -16 -16 -16 -16 -16 -15 -15 -15 -15 -14 -14 -14 -14 -13 -13 -12 -12 -12 -11
-14 -14 -14 -15 -15 -15 -15 -16 -16 -16 -16 -16 -16 -16 -17 -17 -17 -17 -17 -17 -17 -17 -17 -17 -17 -16 -16 -16 -16 -16 -16 -16 -15 -15 -15 -15 -14 -15 -14 -13 -12 -12 -12
-14 -14 -14 -15 -15 -15 -16 -16 -16 -17 -17 -17 -17 -17 -17 -16 -16 -16 -16 -16 -17 -17 -17 -17 -17 -17 -17 -17 -17 -17 -17 -16 -16 -16 -16 -17 -17 -18 -18 -17 -15 -13 -12
-13 -13 -14 -14 -15 -15 -15 -16 -15 -16 -16 -16 -16 -16 -16 -16 -16 -16 -16 -16 -16 -16 -16 -16 -17 -17 -17 -17 -17 -18 -18 -18 -18 -18 -19 -20 -21 -21 -21 -20 -19 -17 -14
-11 -12 -12 -13 -14 -14 -14 -15 -15 -15 -15 -15 -15 -15 -15 -16 -16 -16 -16 -16 -16 -16 -16 -16 -16 -16 -17 -17 -18 -19 -19 -19 -19 -20 -21 -21 -21 -21 -21 -21 -21 -20 -18
-11 -12 -12 -13 -13 -14 -14 -14 -14 -14 -14 -15 -15 -15 -15 -15 -16 -16 -16 -16 -16 -16 -16 -16 -16 -16 -17 -17 -17 -19 -20 -20 -20 -21 -21 -21 -21 -21 -21 -21 -21 -21 -20
-11 -12 -12 -12 -13 -13 -13 -13 -13 -14 -14 -14 -15 -15 -15 -15 -15 -15 -16 -16 -16 -16 -16 -17 -17 -17 -17 -17 -17 -18 -20 -21 -21 -22 -22 -22 -22 -22 -22 -22 -22 -22 -21
-11 -12 -12 -12 -13 -13 -13 -13 -14 -14 -14 -14 -15 -15 -15 -15 -15 -15 -16 -16 -16 -16 -17 -17 -17 -18 -18 -18 -19 -19 -20 -20 -21 -23 -22 -22 -22 -23 -23 -24 -24 -23 -23
-11 -11 -12 -12 -12 -12 -13 -13 -13 -14 -14 -14 -14 -15 -15 -15 -15 -16 -16 -16 -16 -17 -17 -18 -18 -18 -18 -19 -20 -20 -22 -21 -21 -22 -23 -23 -23 -23 -24 -25 -26 -26 -26
-11 -11 -11 -12 -12 -12 -13 -13 -13 -14 -14 -14 -14 -14 -15 -15 -15 -16 -16 -17 -17 -17 -17 -18 -18 -19 -19 -19 -20 -21 -22 -22 -23 -22 -23 -24 -24 -25 -26 -26 -26 -27 -27
-11 -11 -11 -11 -12 -12 -13 -13 -13 -13 -14 -14 -14 -15 -15 -15 -15 -16 -16 -17 -17 -17 -18 -18 -19 -19 -19 -20 -21 -22 -23 -23 -24 -24 -24 -24 -25 -25 -26 -27 -27 -27 -27

GFSSE_500_temp_291.txt.gz
Temp
-9 -9 -8 -9 -9 -9 -9 -9 -9 -9 -9 -8 -8 -8 -8 -8 -8 -8 -8 -7 -7 -7 -7 -7 -6 -6 -6 -7 -7 -7 -6 -6 -7 -7 -6 -6 -7 -6 -6 -6 -5 -5 -5
-9 -9 -10 -10 -10 -10 -10 -10 -10 -10 -10 -10 -9 -9 -9 -9 -9 -9 -8 -8 -8 -8 -7 -8 -7 -6 -7 -6 -7 -7 -7 -6 -6 -6 -6 -6 -6 -6 -6 -6 -6 -6 -5
-10 -10 -10 -10 -10 -10 -10 -10 -10 -10 -10 -10 -10 -10 -10 -10 -10 -10 -10 -9 -9 -9 -8 -8 -8 -8 -7 -7 -6 -7 -7 -7 -6 -6 -6 -6 -6 -6 -6 -6 -6 -6 -6
-11 -11 -11 -11 -11 -11 -11 -11 -11 -11 -11 -11 -10 -10 -10 -10 -10 -10 -10 -10 -10 -10 -9 -9 -8 -9 -8 -8 -7 -7 -7 -7 -7 -7 -6 -6 -6 -6 -6 -6 -6 -7 -6
-11 -11 -11 -11 -11 -11 -11 -11 -11 -11 -11 -11 -11 -11 -11 -11 -10 -10 -10 -10 -10 -10 -10 -9 -9 -9 -9 -9 -8 -8 -7 -7 -7 -7 -7 -6 -6 -6 -6 -6 -6 -6 -7
-11 -11 -11 -11 -11 -11 -11 -11 -11 -11 -11 -11 -11 -11 -10 -10 -10 -10 -10 -10 -10 -10 -10 -10 -9 -9 -9 -9 -9 -8 -8 -8 -8 -8 -7 -7 -7 -6 -6 -6 -6 -6 -6
-11 -12 -12 -12 -12 -12 -12 -12 -12 -12 -12 -12 -11 -11 -11 -11 -11 -10 -10 -10 -10 -10 -10 -9 -9 -9 -9 -9 -9 -9 -8 -8 -8 -8 -8 -8 -8 -7 -7 -6 -6 -6 -6
-12 -12 -13 -13 -13 -13 -14 -14 -14 -14 -14 -14 -14 -14 -14 -13 -12 -12 -12 -11 -11 -10 -10 -10 -10 -9 -9 -9 -9 -9 -9 -9 -8 -8 -8 -8 -8 -8 -7 -7 -6 -6 -6
-13 -13 -14 -14 -15 -15 -15 -15 -15 -15 -15 -15 -15 -15 -15 -15 -15 -15 -15 -14 -14 -13 -13 -12 -12 -11 -11 -10 -9 -9 -9 -9 -9 -8 -8 -8 -8 -8 -8 -7 -7 -7 -7
-13 -14 -14 -14 -15 -15 -15 -15 -15 -15 -16 -16 -16 -16 -16 -15 -15 -15 -15 -15 -15 -15 -15 -14 -14 -14 -13 -13 -12 -12 -10 -10 -10 -9 -8 -8 -8 -8 -8 -8 -8 -7 -7
-14 -14 -14 -14 -14 -15 -15 -15 -15 -15 -15 -16 -16 -15 -15 -15 -15 -15 -15 -15 -15 -14 -14 -14 -14 -14 -14 -14 -14 -14 -13 -12 -12 -11 -10 -9 -8 -8 -8 -8 -8 -7 -8
-14 -14 -14 -14 -14 -14 -14 -15 -15 -15 -15 -15 -16 -16 -15 -16 -16 -16 -15 -15 -15 -15 -15 -15 -14 -14 -14 -14 -14 -14 -14 -14 -14 -13 -13 -12 -10 -9 -8 -8 -8 -8 -8
-13 -13 -14 -14 -14 -14 -15 -15 -15 -15 -15 -15 -15 -15 -15 -16 -16 -16 -16 -16 -16 -16 -15 -15 -15 -15 -15 -15 -15 -15 -14 -14 -14 -14 -14 -13 -13 -12 -11 -10 -9 -8 -8
-13 -13 -14 -14 -14 -14 -15 -15 -15 -15 -15 -15 -16 -16 -16 -16 -16 -16 -16 -16 -16 -16 -16 -16 -16 -15 -15 -15 -15 -15 -15 -15 -15 -14 -14 -14 -14 -13 -13 -12 -11 -10 -9
-12 -13 -14 -14 -14 -15 -15 -15 -16 -16 -16 -16 -16 -16 -16 -16 -16 -16 -16 -16 -16 -17 -17 -17 -16 -16 -16 -15 -15 -15 -15 -15 -15 -15 -15 -15 -14 -14 -14 -13 -13 -12 -11
-11 -12 -13 -13 -14 -15 -15 -15 -15 -16 -16 -16 -16 -16 -16 -16 -16 -16 -16 -16 -16 -16 -16 -16 -16 -16 -16 -16 -16 -16 -15 -15 -15 -15 -15 -15 -15 -15 -15 -14 -14 -13 -12
-11 -11 -11 -12 -12 -13 -13 -14 -14 -14 -15 -15 -15 -15 -15 -15 -15 -15 -15 -15 -15 -15 -15 -15 -16 -16 -16 -16 -16 -16 -16 -16 -16 -16 -16 -16 -15 -15 -15 -15 -14 -13 -13
-11 -11 -11 -12 -12 -12 -13 -13 -13 -13 -14 -14 -14 -14 -14 -15 -15 -15 -15 -15 -15 -15 -15 -15 -16 -16 -16 -16 -16 -16 -16 -16 -16 -17 -17 -17 -16 -16 -16 -15 -15 -14 -13
-11 -11 -11 -12 -12 -12 -13 -13 -13 -13 -14 -14 -14 -14 -14 -14 -14 -15 -15 -15 -15 -15 -15 -15 -15 -15 -16 -16 -16 -16 -16 -16 -17 -17 -18 -19 -18 -17 -17 -16 -15 -15 -14
-11 -11 -11 -12 -12 -12 -12 -13 -13 -13 -14 -14 -14 -14 -14 -14 -14 -14 -15 -15 -15 -15 -15 -15 -15 -15 -15 -16 -16 -16 -16 -17 -17 -18 -19 -19 -19 -19 -18 -17 -17 -17 -17
-11 -11 -11 -11 -12 -12 -12 -13 -13 -13 -13 -14 -14 -14 -14 -14 -15 -15 -15 -15 -15 -15 -15 -16 -16 -16 -16 -17 -17 -18 -18 -18 -19 -19 -20 -20 -20 -20 -20 -20 -20 -20 -21
-11 -11 -11 -11 -12 -12 -12 -13 -13 -13 -13 -14 -14 -14 -14 -15 -15 -15 -15 -16 -16 -16 -16 -16 -17 -17 -17 -17 -18 -18 -18 -20 -21 -21 -21 -21 -21 -21 -21 -21 -21 -21 -22
-11 -11 -11 -11 -12 -12 -12 -12 -13 -13 -13 -14 -14 -14 -14 -15 -15 -15 -15 -16 -16 -16 -16 -16 -17 -17 -17 -18 -18 -19 -20 -21 -21 -23 -23 -23 -22 -22 -22 -22 -22 -22 -22
-11 -11 -11 -11 -11 -12 -12 -12 -13 -13 -13 -14 -14 -14 -15 -15 -15 -15 -15 -16 -16 -16 -16 -16 -17 -17 -18 -19 -20 -21 -22 -23 -23 -23 -25 -24 -23 -23 -23 -23 -23 -23 -24
-11 -11 -11 -11 -11 -12 -12 -12 -13 -13 -13 -14 -14 -14 -15 -15 -15 -15 -16 -16 -16 -16 -16 -17 -17 -18 -18 -20 -22 -23 -24 -25 -25 -25 -25 -24 -23 -24 -24 -24 -24 -25 -25
-10 -11 -11 -11 -11 -12 -12 -12 -13 -13 -13 -13 -14 -14 -14 -15 -15 -15 -16 -16 -16 -16 -16 -17 -17 -18 -19 -21 -23 -25 -25 -25 -25 -25 -25 -24 -24 -24 -24 -24 -25 -25 -25